Society Hill, SC

7:50 PM EDT on July 24, 2016 (GMT -0400)
Darlington County Jetport

Weather History for KUDG - February, 2013

Change the Weather History Date:

Friday, February 8, 2013

  Actual Average (KFLO) Record (KFLO)
Temperature  
Mean Temperature 52 °F 47 °F  
Max Temperature 60 °F 58 °F 76 °F (1965)
Min Temperature 44 °F 36 °F 18 °F (1951)
Degree Days  
Heating Degree Days 13 18  
Month to date heating degree days 147  
Since 1 July heating degree days 1749  
Cooling Degree Days 0 0  
Month to date cooling degree days 0  
Year to date cooling degree days 2  
Growing Degree Days 2 (Base 50)    
Moisture  
Dew Point 41 °F    
Average Humidity 71    
Maximum Humidity 93    
Minimum Humidity 50    
Precipitation  
Precipitation 0.24 in 0.10 in 0.67 in (1969)
Month to date precipitation 0.82  
Year to date precipitation 4.05  
Sea Level Pressure  
Sea Level Pressure 29.91 in    
Wind  
Wind Speed 13 mph (NW)    
Max Wind Speed 17 mph    
Max Gust Speed 26 mph    
T = Trace of Precipitation, MM = Missing Value Source: NWS Daily Summary

Daily Weather History Graph

Daily Weather History Graph

Search for Another Location

Airport or City:

Trip Planner

Search our weather history database for the weather conditions in past years. The results will help you decide how hot, cold, wet, or windy it might be!

Date:

Astronomy

Feb. 08, 2013 Rise Set
Actual Time 7:11 AM EST 5:56 PM EST
Civil Twilight 6:45 AM EST 6:22 PM EST
Nautical Twilight 6:15 AM EST 6:52 PM EST
Astronomical Twilight 5:46 AM EST 7:21 PM EST
Moon 5:36 AM EST (2/8) 4:29 PM EST (2/8)
Length of Visible Light 11h 37m
Length of Day
10h 45m
Waning Crescent, 3% of the Moon is Illuminated
Feb 8
Waning Crescent
Feb 10
New
Feb 17
First Quarter
Feb 25
Full
Mar 4
Last Quarter

Hourly Weather History & Observations

Time (EST) Temp. Windchill Dew Point Humidity Pressure Visibility Wind Dir Wind Speed Gust Speed Precip Events Conditions
12:15 AM 48.2 °F - 44.6 °F 87% 29.87 in - North 13.8 mph 25.3 mph 0.12 in   Overcast
12:35 AM 48.2 °F - 46.4 °F 93% 29.84 in - NE 17.3 mph 20.7 mph 0.22 in   Overcast
12:55 AM 48.2 °F - 46.4 °F 93% 29.83 in - North 15.0 mph 21.9 mph 0.24 in   Overcast
1:15 AM 48.2 °F - 44.6 °F 87% 29.83 in - North 17.3 mph 26.5 mph N/A   Overcast
1:55 AM 48.2 °F - 44.6 °F 87% 29.82 in - North 16.1 mph 21.9 mph N/A   Overcast
2:15 AM 48.2 °F - 44.6 °F 87% 29.82 in - North 13.8 mph - N/A   Overcast
2:35 AM 48.2 °F - 42.8 °F 82% 29.81 in - North 16.1 mph 25.3 mph N/A   Overcast
2:55 AM 48.2 °F - 44.6 °F 87% 29.80 in - North 16.1 mph 24.2 mph N/A   Overcast
3:15 AM 48.2 °F - 42.8 °F 82% 29.80 in - North 13.8 mph 19.6 mph N/A   Overcast
3:35 AM 48.2 °F - 42.8 °F 82% 29.81 in - North 16.1 mph 21.9 mph N/A   Overcast
3:55 AM 48.2 °F - 42.8 °F 82% 29.82 in - North 16.1 mph 20.7 mph N/A   Overcast
4:15 AM 48.2 °F - 41.0 °F 76% 29.82 in - North 17.3 mph 21.9 mph N/A   Overcast
4:35 AM 46.4 °F 40.7 °F 41.0 °F 81% 29.82 in - North 12.7 mph - N/A   Overcast
4:55 AM 46.4 °F 40.1 °F 41.0 °F 81% 29.83 in - North 15.0 mph - N/A   Mostly Cloudy
5:15 AM 46.4 °F 40.7 °F 41.0 °F 81% 29.84 in - North 12.7 mph - N/A   Overcast
5:35 AM 46.4 °F 41.5 °F 41.0 °F 81% 29.85 in - NNW 10.4 mph - N/A   Overcast
5:55 AM 48.2 °F - 41.0 °F 76% 29.86 in - NNW 12.7 mph - N/A   Overcast
6:15 AM 48.2 °F - 41.0 °F 76% 29.85 in - North 9.2 mph - N/A   Overcast
6:35 AM 46.4 °F 41.9 °F 39.2 °F 76% 29.86 in - NNW 9.2 mph - N/A   Mostly Cloudy
6:55 AM 46.4 °F 41.9 °F 39.2 °F 76% 29.87 in - NNW 9.2 mph - N/A   Partly Cloudy
7:15 AM 46.4 °F 41.1 °F 39.2 °F 76% 29.87 in - NNW 11.5 mph - N/A   Mostly Cloudy
7:35 AM 46.4 °F 41.1 °F 39.2 °F 76% 29.88 in - NNW 11.5 mph 17.3 mph N/A   Overcast
7:55 AM 44.6 °F 38.1 °F 37.4 °F 76% 29.89 in - NNW 13.8 mph 17.3 mph N/A   Overcast
8:15 AM 44.6 °F 38.4 °F 37.4 °F 76% 29.89 in - NW 12.7 mph - N/A   Overcast
8:35 AM 44.6 °F 37.8 °F 37.4 °F 76% 29.91 in - NW 15.0 mph - N/A   Overcast
8:55 AM 44.6 °F 37.8 °F 37.4 °F 76% 29.92 in - NW 15.0 mph - N/A   Overcast
9:15 AM 44.6 °F 38.8 °F 37.4 °F 76% 29.93 in - NW 11.5 mph - N/A   Overcast
9:35 AM 44.6 °F 38.8 °F 37.4 °F 76% 29.93 in - NNW 11.5 mph - N/A   Overcast
9:55 AM 44.6 °F 38.8 °F 37.4 °F 76% 29.95 in - NNW 11.5 mph - N/A   Overcast
10:15 AM 44.6 °F 38.4 °F 37.4 °F 76% 29.96 in - WNW 12.7 mph 16.1 mph N/A   Overcast
10:35 AM 44.6 °F 39.2 °F 37.4 °F 76% 29.96 in - WNW 10.4 mph - N/A   Overcast
10:55 AM 44.6 °F 38.8 °F 37.4 °F 76% 29.96 in - West 11.5 mph - N/A   Overcast
11:15 AM 46.4 °F 41.5 °F 39.2 °F 76% 29.95 in - WNW 10.4 mph - N/A   Overcast
11:35 AM 48.2 °F - 39.2 °F 71% 29.94 in - WNW 9.2 mph - N/A   Scattered Clouds
11:55 AM 50.0 °F - 41.0 °F 71% 29.93 in - West 8.1 mph - N/A   Clear
12:15 PM 51.8 °F - 42.8 °F 71% 29.92 in - West 6.9 mph - N/A   Clear
12:35 PM 51.8 °F - 41.0 °F 67% 29.92 in - West 6.9 mph - N/A   Clear
12:55 PM 53.6 °F - 42.8 °F 67% 29.91 in - West 9.2 mph 16.1 mph N/A   Clear
1:15 PM 55.4 °F - 42.8 °F 63% 29.91 in - WSW 8.1 mph - N/A   Clear
1:35 PM 57.2 °F - 44.6 °F 63% 29.90 in - West 10.4 mph - N/A   Clear
1:55 PM 57.2 °F - 44.6 °F 63% 29.89 in - West 10.4 mph - N/A   Clear
2:15 PM 59.0 °F - 44.6 °F 59% 29.88 in - West 12.7 mph - N/A   Clear
2:35 PM 60.8 °F - 44.6 °F 55% 29.88 in - West 13.8 mph 20.7 mph N/A   Clear
2:55 PM 60.8 °F - 44.6 °F 55% 29.87 in - West 15.0 mph 18.4 mph N/A   Clear
3:15 PM 60.8 °F - 44.6 °F 55% 29.88 in - West 13.8 mph - N/A   Partly Cloudy
3:35 PM 60.8 °F - 44.6 °F 55% 29.88 in - West 13.8 mph 18.4 mph N/A   Partly Cloudy
3:55 PM 60.8 °F - 44.6 °F 55% 29.89 in - West 12.7 mph 19.6 mph N/A   Scattered Clouds
4:15 PM 60.8 °F - 44.6 °F 55% 29.89 in - WSW 13.8 mph - N/A   Mostly Cloudy
4:35 PM 59.0 °F - 44.6 °F 59% 29.89 in - West 10.4 mph - N/A   Mostly Cloudy
4:55 PM 60.8 °F - 44.6 °F 55% 29.89 in - West 10.4 mph - N/A   Partly Cloudy
5:15 PM 60.8 °F - 44.6 °F 55% 29.90 in - West 8.1 mph - N/A   Mostly Cloudy
5:35 PM 60.8 °F - 46.4 °F 59% 29.90 in - West 12.7 mph - N/A   Overcast
5:55 PM 59.0 °F - 44.6 °F 59% 29.91 in - WSW 8.1 mph - N/A   Mostly Cloudy
6:15 PM 57.2 °F - 44.6 °F 63% 29.92 in - WSW 8.1 mph - N/A   Partly Cloudy
6:35 PM 55.4 °F - 44.6 °F 67% 29.93 in - WSW 8.1 mph - N/A   Clear
6:55 PM 55.4 °F - 44.6 °F 67% 29.94 in - West 5.8 mph - N/A   Partly Cloudy
7:15 PM 55.4 °F - 44.6 °F 67% 29.95 in - West 8.1 mph - N/A   Mostly Cloudy
7:35 PM 53.6 °F - 44.6 °F 72% 29.96 in - WNW 5.8 mph - N/A   Mostly Cloudy
7:55 PM 53.6 °F - 44.6 °F 72% 29.97 in - West 6.9 mph - N/A   Partly Cloudy
8:15 PM 51.8 °F - 44.6 °F 76% 29.98 in - West 5.8 mph - N/A   Clear
8:35 PM 51.8 °F - 42.8 °F 71% 29.98 in - West 4.6 mph - N/A   Clear
8:55 PM 48.2 °F - 42.8 °F 82% 29.99 in - West 5.8 mph - N/A   Clear
9:15 PM 50.0 °F - 41.0 °F 71% 30.00 in - WNW 6.9 mph - N/A   Clear
9:35 PM 51.8 °F - 37.4 °F 58% 30.02 in - WNW 9.2 mph - N/A   Clear
9:55 PM 48.2 °F - 35.6 °F 62% 30.03 in - NW 6.9 mph - N/A   Clear
10:15 PM 48.2 °F - 35.6 °F 62% 30.04 in - NNW 9.2 mph - N/A   Clear
10:35 PM 48.2 °F - 33.8 °F 58% 30.06 in - NNW 10.4 mph - N/A   Clear
10:55 PM 48.2 °F - 33.8 °F 58% 30.07 in - NNW 12.7 mph - N/A   Clear
11:15 PM 46.4 °F 40.7 °F 32.0 °F 57% 30.09 in - NNW 12.7 mph - N/A   Clear
11:35 PM 46.4 °F 40.7 °F 30.2 °F 53% 30.10 in - North 12.7 mph 21.9 mph N/A   Clear
11:55 PM 46.4 °F 41.1 °F 28.4 °F 50% 30.11 in - North 11.5 mph - N/A   Clear